Simultaneous Nadir Overpasses (SNOs) Predictions

Prediction of SNOs between GOES-16 and METOP-B Satellite Orbit:

Table of predicted SNOs for the next 14.0 days since TLE Epoch: 6/10/2023
Index Date Time (GOES-16) GOES-16 Lat,Lon METOP-B Lat,Lon Distance(km) Time Diff (sec)
1 06/11/2023 02:25:51 0.02, -75.18 0.19, -74.43 85.76 80
2 06/12/2023 14:47:23 -0.02, -75.20 0.82, -78.99 432.08 80
3 06/13/2023 14:24:03 -0.02, -75.21 -0.30, -74.00 137.80 80
4 06/15/2023 02:45:42 0.01, -75.22 -0.77, -78.59 385.46 80
5 06/16/2023 02:22:23 0.02, -75.23 0.36, -73.60 184.58 80
6 06/17/2023 14:43:54 -0.02, -75.25 0.64, -78.17 332.54 80
7 06/18/2023 14:20:35 -0.03, -75.26 -0.49, -73.18 237.71 80
8 06/20/2023 02:42:15 0.03, -75.28 -0.51, -77.78 284.71 80
9 06/21/2023 02:18:55 0.04, -75.29 0.57, -72.78 285.91 80
10 06/22/2023 14:40:26 -0.04, -75.33 0.43, -77.34 230.02 80
11 06/23/2023 14:17:06 -0.04, -75.35 -0.71, -72.36 341.15 80
